This demonstration page uses our WeatherBlox Daily Observations layout. Learn more.

Left ArrowRight Arrow

34.16533, -84.80231

Hourly Observations for October 23, 2019

Temp ( °F °C ) Dew Point ( °F °C ) Humidity (%) Winds ( mph kmh ) Pressure ( in mb ) Visibility ( mi km ) Precip ( " mm )
12:15 am 00:15 Clear 48 9 43 6 82 82 Calm 30.15 1021 10 16 N/A
12:35 am 00:35 Clear 46 8 43 6 87 87 Calm 30.15 1021 10 16 N/A
12:55 am 00:55 Clear 46 8 43 6 87 87 Calm 30.15 1021 10 16 N/A
1:15 am 01:15 Clear 46 8 43 6 87 87 Calm 30.15 1021 10 16 N/A
1:35 am 01:35 Clear 45 7 43 6 93 93 Calm 30.15 1021 10 16 N/A
1:55 am 01:55 Clear 45 7 43 6 93 93 Calm 30.15 1021 10 16 N/A
2:15 am 02:15 Clear 43 6 43 6 100 100 Calm 30.18 1022 10 16 N/A
2:35 am 02:35 Clear 43 6 43 6 100 100 Calm 30.18 1022 10 16 N/A
2:55 am 02:55 Clear 43 6 43 6 100 100 Calm 30.18 1022 10 16 N/A
3:15 am 03:15 Clear 43 6 43 6 100 100 Calm 30.18 1022 10 16 N/A
3:35 am 03:35 Clear 43 6 43 6 100 100 Calm 30.18 1022 10 16 N/A
3:55 am 03:55 Clear 43 6 43 6 100 100 Calm 30.18 1022 10 16 N/A
4:15 am 04:15 Clear 43 6 43 6 100 100 Calm 30.18 1022 10 16 N/A
4:35 am 04:35 Clear 41 5 41 5 100 100 S 3 6 30.18 1022 10 16 N/A
4:55 am 04:55 Clear 41 5 41 5 100 100 Calm 30.18 1022 10 16 N/A
5:15 am 05:15 Clear 41 5 41 5 100 100 Calm 30.18 1022 10 16 N/A
5:35 am 05:35 Clear 41 5 41 5 100 100 Calm 30.18 1022 10 16 N/A
5:55 am 05:55 Clear 41 5 41 5 100 100 Calm 30.18 1022 10 16 N/A
6:15 am 06:15 Clear 41 5 41 5 100 100 Calm 30.21 1023 10 16 N/A
6:35 am 06:35 Clear 39 4 39 4 100 100 Calm 30.21 1023 10 16 N/A
6:55 am 06:55 Clear 39 4 39 4 100 100 Calm 30.21 1023 10 16 N/A
7:15 am 07:15 Clear 39 4 39 4 100 100 Calm 30.21 1023 10 16 N/A
7:35 am 07:35 Clear 37 3 37 3 100 100 S 3 6 30.21 1023 10 16 N/A
7:55 am 07:55 Sunny 39 4 39 4 100 100 Calm 30.21 1023 10 16 N/A
8:15 am 08:15 Sunny 39 4 39 4 100 100 Calm 30.21 1023 10 16 N/A
8:35 am 08:35 Sunny 39 4 39 4 100 100 Calm 30.24 1024 10 16 N/A
8:55 am 08:55 Sunny 41 5 41 5 100 100 S 3 6 30.24 1024 10 16 N/A
9:35 am 09:35 Sunny 46 8 43 6 87 87 Calm 30.24 1024 10 16 N/A
9:55 am 09:55 Sunny 50 10 43 6 76 76 Calm 30.24 1024 10 16 N/A
10:15 am 10:15 Sunny 52 11 43 6 72 72 Calm 30.27 1025 10 16 N/A
10:35 am 10:35 Sunny 54 12 41 5 63 63 Calm 30.27 1025 10 16 N/A
10:55 am 10:55 Sunny 55 13 41 5 59 59 Calm 30.27 1025 10 16 N/A
11:15 am 11:15 Sunny 59 15 37 3 45 45 ENE 3 6 30.24 1024 10 16 N/A
11:35 am 11:35 Sunny 59 15 37 3 45 45 NNW 3 6 30.24 1024 10 16 N/A
11:55 am 11:55 Sunny 61 16 36 2 39 39 NE 5 7 30.24 1024 10 16 N/A
12:15 pm 12:15 Sunny 63 17 36 2 37 37 NNW 7 11 30.24 1024 10 16 N/A
12:35 pm 12:35 Sunny 63 17 36 2 37 37 N 6 9 30.24 1024 10 16 N/A
12:55 pm 12:55 Sunny 63 17 34 1 34 34 NNE 8 13 30.24 1024 10 16 N/A
1:15 pm 13:15 Sunny 64 18 32 0 30 30 N 6 9 30.24 1024 10 16 N/A
1:35 pm 13:35 Sunny 64 18 32 0 30 30 NNW 6 9 30.21 1023 10 16 N/A
1:55 pm 13:55 Sunny 66 19 32 0 28 28 Calm 30.21 1023 10 16 N/A
2:15 pm 14:15 Sunny 66 19 32 0 28 28 N 7 11 30.21 1023 10 16 N/A
2:35 pm 14:35 Sunny 68 20 32 0 26 26 NNE 5 7 30.21 1023 10 16 N/A
2:55 pm 14:55 Sunny 68 20 32 0 26 26 NNE 3 6 30.18 1022 10 16 N/A
3:15 pm 15:15 Sunny 68 20 30 -1 24 24 NNE 9 15 30.18 1022 10 16 N/A
3:35 pm 15:35 Sunny 68 20 30 -1 24 24 ENE 5 7 30.18 1022 10 16 N/A
3:55 pm 15:55 Sunny 68 20 30 -1 24 24 N 7 11 30.18 1022 10 16 N/A
4:15 pm 16:15 Sunny 68 20 32 0 26 26 NNE 6 9 30.18 1022 10 16 N/A
4:35 pm 16:35 Sunny 68 20 32 0 26 26 N 7 11 30.18 1022 10 16 N/A
4:55 pm 16:55 Sunny 68 20 32 0 26 26 Calm 30.18 1022 10 16 N/A
5:15 pm 17:15 Sunny 68 20 32 0 26 26 W 3 6 30.18 1022 10 16 N/A
5:35 pm 17:35 Sunny 68 20 32 0 26 26 NNW 5 7 30.18 1022 10 16 N/A
5:55 pm 17:55 Sunny 68 20 32 0 26 26 N 3 6 30.18 1022 10 16 N/A
6:15 pm 18:15 Sunny 68 20 32 0 26 26 Calm 30.18 1022 10 16 N/A
6:35 pm 18:35 Sunny 64 18 34 1 32 32 Calm 30.18 1022 10 16 N/A
6:55 pm 18:55 Sunny 61 16 39 4 45 45 Calm 30.18 1022 10 16 N/A
7:15 pm 19:15 Clear 55 13 41 5 59 59 Calm 30.18 1022 10 16 N/A
7:35 pm 19:35 Clear 54 12 41 5 63 63 Calm 30.21 1023 10 16 N/A
7:55 pm 19:55 Clear 52 11 41 5 67 67 Calm 30.21 1023 10 16 N/A
8:15 pm 20:15 Clear 52 11 41 5 67 67 Calm 30.24 1024 10 16 N/A
8:35 pm 20:35 Clear 50 10 41 5 71 71 Calm 30.24 1024 10 16 N/A
8:55 pm 20:55 Clear 48 9 39 4 71 71 Calm 30.24 1024 10 16 N/A
9:15 pm 21:15 Clear 46 8 41 5 82 82 Calm 30.24 1024 10 16 N/A
9:35 pm 21:35 Clear 46 8 41 5 82 82 Calm 30.24 1024 10 16 N/A
9:55 pm 21:55 Clear 46 8 41 5 82 82 Calm 30.27 1025 10 16 N/A
10:15 pm 22:15 Clear 45 7 41 5 87 87 Calm 30.27 1025 10 16 N/A
10:35 pm 22:35 Clear 45 7 41 5 87 87 Calm 30.27 1025 10 16 N/A
10:55 pm 22:55 Clear 45 7 41 5 87 87 Calm 30.27 1025 10 16 N/A
11:15 pm 23:15 Clear 45 7 41 5 87 87 Calm 30.27 1025 10 16 N/A
11:35 pm 23:35 Clear 43 6 41 5 93 93 Calm 30.27 1025 10 16 N/A
11:55 pm 23:55 Clear 43 6 41 5 93 93 Calm 30.27 1025 10 16 N/A

Powered by AerisWeather